Location: Christian Reformed Church
(43.0975°N, 93.8113°W)
Time: 11:19:16
(UTC+00:00)

BREEZE-M DEB (TANK) - Visible Passes

Search period start: 15 March 2026 00:00
Search period end: 25 March 2026 00:00
Orbit: 311 x 11312 km, 49.7° (Epoch: 14 March)

Date Brightness Start Highest point End Pass type
(mag) Time Alt. Az. Time Alt. Az. Time Alt. Az.
15 Mar 5.9 04:31:34 10° WNW 04:44:16 49° NW 04:44:16 49° NW visible
16 Mar 5.9 02:31:29 10° W 02:59:51 63° NNW 03:03:42 35° ENE visible
17 Mar 7.0 00:23:03 10° WSW 01:12:33 82° NNW 01:22:29 10° ENE visible
17 Mar 6.2 04:57:12 10° WNW 05:06:22 39° NW 05:06:22 39° NW visible
18 Mar 5.6 03:00:03 10° W 03:23:25 61° N 03:25:45 45° NE visible
19 Mar 6.8 00:52:53 10° WSW 01:36:16 74° NNW 01:45:06 11° ENE visible
19 Mar 6.6 05:22:04 10° WNW 05:28:20 29° WNW 05:28:20 29° WNW visible
20 Mar 5.3 03:27:29 10° WNW 03:46:48 62° N 03:47:39 59° NNE visible
21 Mar 6.5 01:22:56 10° W 01:59:50 68° NNW 02:06:57 16° ENE visible
21 Mar 6.9 05:46:26 10° WNW 05:50:10 20° WNW 05:50:10 20° WNW visible
22 Mar 5.2 03:53:46 10° WNW 04:09:26 67° N 04:09:26 67° N visible
23 Mar 6.2 01:52:27 10° W 02:23:16 64° N 02:28:41 23° ENE visible
23 Mar 7.2 06:10:36 10° WNW 06:11:53 13° WNW 06:11:53 13° WNW visible
24 Mar 5.5 04:19:06 10° WNW 04:31:06 57° NW 04:31:06 57° NW visible
